STARLINK-31583, 59369

Orbit data source: Space-Track

STARLINK-31583, 59369 is a payload satellite owned by SpaceX/Seattle (US) in LEO that was launched on Sun, 31 Mar 2024 UTC via an FALCON 9 launch vehicle from the Air Force Eastern Test Range (AFETR). Payload-class satellites include a variety of spacecraft equipped with specific instruments for various scientific and technological missions. These include communications satellites like Starlink; space stations such as the ISS; scientific satellites like the Hubble; Earth observation satellites from companies like Planet Labs, Umbra, and HawkEye 360; GPS; miniature CubeSats for education and research; and military/defense satellites.

Loading next visibility...
Identifier
59369, 2024-060X
Orbit
LEO
Country
Flag of USUS
Related business
Manufacturer
SpaceX/Seattle
Mission
Operational Commercial Communications
Bus & Motor
STARLINK V2M, Unknown motor
Mass
730 kg wet, ~700 kg dry
Launch date (UTC)
2024-03-31 (2 years ago)
Launch vehicle
FALCON 9
Launch site
Air Force Eastern Test Range (AFETR)
Object type
Payload
Rocket body
Debris
Shape & HBR
Box + 2 Pan, 17.7 m
Radar Cross Section
33.884 m², Large (>1 m²)

Expand to show TLE details & history
Last TLE update: 2 days ago

TLE from 2 days ago
0 STARLINK-31583
1 59369U 24060X   26171.04423594  .00003329  00000-0  13044-3 0  9994
2 59369  43.0024  30.8250 0001219 284.8593  75.2124 15.27580375125841
Epoch: 2026-06-20T01:03Z
TLE epoch observation values (Epoch: 2026-06-20T01:03:41.985Z)
Latitude
0.00002°
Longitude
106.63557°
Altitude
482.61 km
Speed
7.626 km/s
True Right ascension
02h 03m 18s
True Declination
0° 00' 00"
Sunlit
Object was in daylight at epoch
Visualization orbit readout
Latitude
Unknown
Longitude
Unknown
Altitude
Unknown
Speed
Unknown
Apparent Right ascension
Unknown
Apparent Declination
Unknown
Sunlit
N/A
Visualization observer readout
Local Sidereal Time
21:43:06
Azimuth
Unknown
Elevation
Unknown
Doppler factor
Unknown
Orbital elements
Apogee altitude
485.829 km
Perigee altitude
484.156 km
Semi-major axis
6,863.13 km
Eccentricity
0.00012
Inclination
43.0024°
RAAN
30.825°
Arg. of periapsis
284.8593°
True anomaly
75.22591°
Mean anomaly
75.2124°
Eccentric anomaly
75.21915°
Mean motion
3.81733 °/min
Orbital period
94.31 mins
BSTAR
0.00013044
Loading maneuver chart data...
Computing Atmospheric mass density...
Loading historical data...
Loading historical data...
Loading historical data...
Loading historical data...
Loading historical data...
Loading historical data...
Loading historical data...

Documentation

Showing up to 5 results
|